Rbgn^[z[y[W
メイン
   新天体発見情報
     Comet P/2022 R1 (PANSTARRS)
投稿するにはまず登録を

スレッド表示 | 新しいものから 前のトピック | 次のトピック | 下へ
投稿者 スレッド
佐藤裕久
投稿日時: 2022-9-12 12:19
モデレータ
登録日: 2005-6-12
居住地: 日本
投稿: 2505
オンライン
Comet P/2022 R1 (PANSTARRS)

R. Weryk (西オンタリオ大学,物理および天文学科)の通報によると、9月1日UT、Haleakala
にあるPan-STARRS2の1.8-m Ritchey-Chretien 反射望遠鏡で、4枚の45秒w-バンドサーベイ
画像から彗星を発見した。1".1より良いシーイングで、1".95(半値全幅:FWHM)の集光したコマ
が見え、p.a. 270 °に約3"のまっすぐな尾がある。
小惑星センターのPCCP webpageに公表後、佐藤英貴氏(東京都文京区,9月2.3日UT, 120-秒露出
8枚のスタック, 0.51-m f/6.8 アストログラフ, Rio Hurtado, チリ, 遠隔操作: 中程度に集光
した8"のコマが見え、p.a. 295°に向かって12" の尾の気配がある。4".3の円形範囲で測定し
た光度は20.3等であった)らCCD位置観測者によって彗星状と観測された。

彗星機能の報告は次のとおり、

OC   Date        Reporter           Coma    Tail    PA          Exposures
W76  2022-09-02  H. Sato            8"      15"     295         8x120s
M21  2022-09-03  A. Aletti          6"      

発見位置は次のとおり、

     2022 UT             R.A. (2000) Decl.       Mag.
     Sept. 1.35438   22 22 39.17   - 6 31 46.5   20.8
           1.36585   22 22 38.83   - 6 31 49.4   20.9
           1.37737   22 22 38.50   - 6 31 52.1   21.1
           1.38889   22 22 38.15   - 6 31 54.9   21.0
           1.49978   22 22 34.82   - 6 32 21.8   20.4
           1.50042   22 22 34.81   - 6 32 21.9   20.8

MPCの楕円軌道要素、位置推算表は次のとおり、

Orbital elements:
    P/2022 R1 (PANSTARRS)                                                       
Epoch 2022 Aug. 9.0 TT = JDT 2459800.5                                          
T 2023 Oct. 13.42795 TT                                 Rudenko                 
q   3.5643762            (2000.0)            P               Q                  
n   0.05136843     Peri.  222.86194     +0.77636496     -0.63022491             
a   7.1670183      Node   176.17466     +0.60753723     +0.74464324             
e   0.5026696      Incl.    7.40868     +0.16779739     +0.21982495             
P  19.2                                                                         
From 31 observations 2022 June 23-Sept. 3, mean residual 0".4.                  
                                                                                
Ephemeris:
Date    TT    R. A. (2000) Decl.     Delta      r    Elong.  Phase   m1
2022 08 08    22 33 39.2 -05 03 39   3.5024  4.4519   156.7     5.2  20.7
...
2022 08 23    22 27 09.0 -05 54 54   3.3965  4.4010   172.4     1.7  20.6
...
2022 08 31    22 23 18.4 -06 26 18   3.3664  4.3741   176.1     0.9  20.5
...
2022 09 06    22 20 25.4 -06 50 37   3.3561  4.3542   170.8     2.1  20.5
2022 09 07    22 19 57.0 -06 54 40   3.3554  4.3508   169.7     2.4  20.5
2022 09 08    22 19 28.9 -06 58 44   3.3550  4.3475   168.7     2.6  20.5
...
2022 09 14    22 16 45.3 -07 22 53   3.3586  4.3277   162.3     4.1  20.5
...
2022 09 22    22 13 28.6 -07 53 44   3.3789  4.3015   153.6     6.0  20.5
...
2022 10 07    22 09 02.2 -08 43 20   3.4605  4.2530   137.7     9.1  20.5

(MPEC 2022-R124、CBET 5168)

スレッド表示 | 新しいものから 前のトピック | 次のトピック | トップ

投稿するにはまず登録を
 
© 1999 Tsutomu Seki.